URSA MAIOR

Last updated on Mon Jul 01 2024 00:03:36 GMT+0000 (Coordinated Universal Time)

1 42776U 17036M 24182.46059462 .06529198 23425-5 83900-3 0 9990 2 42776 97.0834 217.7889 0011559 241.2452 118.7685 16.35684810391542
UTC large
Height (km)
Speed (km/s)
/
Latitude / Longitude
Inclination (degrees)
Orbital Period (minutes)
Azimuth
Elevation
Range (km)
Doppler Factor

Next 0 passes for location: London (51.5072 / 0.1276)

Sorry there are no passes over London.